Wetbulb
57.10 57.17 56.99 56.83 56.79 56.80 56.47 56.45 56.47 56.49 56.55 56.25 56.05 56.02 55.76 55.74 55.96 56.64 53.40 58.23 58.23 58.93 58.77 57.45 55.96 52.76 52.85 51.70 52.75 52.00 45.94 44.10 45.26 45.14 46.58 49.53 48.06 51.09 52.52 50.60 51.88 54.28 56.08 58.25 66.20
57.22 57.37 57.22 56.97 56.69 56.51 56.47 56.34 56.27 56.25 56.45 56.25 55.85 55.46 55.46 55.68 55.10 54.16 60.62 61.22 59.85 59.71 55.66 52.79 50.59 50.68 48.74 49.37 50.29 48.09 44.96 45.37 48.10 48.29 47.41 48.27 48.21 48.67 48.09 48.99 49.69 51.14 54.17 57.23 64.84
57.00 57.04 56.88 57.05 56.77 56.32 56.18 55.95 56.17 56.31 56.35 56.50 55.96 55.32 55.14 55.93 52.97 54.06 61.78 61.92 59.87 60.09 55.87 54.19 52.48 50.41 47.84 49.25 48.92 48.22 45.47 48.09 47.66 48.35 48.68 47.84 47.84 49.92 48.50 47.57 50.17 50.37 52.87 56.66 57.50
56.87 56.55 56.66 56.62 56.35 56.04 55.89 55.85 55.85 56.23 56.01 55.68 55.41 55.18 55.08 55.35 46.36 56.20 62.43 61.61 60.43 59.48 54.59 52.11 50.50 47.94 47.04 45.42 49.06 45.21 48.15 47.99 47.78 47.68 48.57 48.10 49.98 49.10 49.59 50.12 52.15 52.92 53.99 56.29 56.77
56.56 56.47 56.39 56.25 55.61 55.61 55.65 55.63 55.33 55.34 55.24 55.18 55.29 54.87 54.27 50.92 51.96 59.25 62.38 61.59 59.98 57.33 52.63 50.39 48.83 48.30 46.32 47.14 47.31 45.42 47.04 48.42 48.99 50.00 50.32 50.87 49.58 49.46 50.18 52.42 53.67 53.62 54.87 55.80 56.78
56.31 56.30 55.94 55.56 55.37 55.37 55.31 55.14 54.96 54.64 54.44 54.75 55.16 54.47 52.08 46.63 57.23 58.28 60.97 59.20 57.67 54.92 52.46 51.19 49.28 49.99 48.33 48.37 47.49 48.96 47.92 49.60 50.75 50.87 50.95 49.41 50.02 49.99 52.05 54.07 52.87 54.33 54.98 56.26 57.17
55.99 56.01 55.85 55.17 55.04 55.05 55.45 55.23 54.50 54.46 54.97 55.71 55.51 53.55 49.12 51.73 58.46 61.49 60.72 59.38 57.95 55.00 51.50 52.28 50.66 49.18 51.12 48.60 51.33 50.16 47.34 49.35 50.05 50.88 50.16 51.65 48.59 48.79 53.04 53.12 53.34 54.09 55.10 56.58 58.67
55.77 55.65 55.45 54.89 54.78 54.92 55.18 54.99 54.44 54.47 55.28 55.63 55.36 52.22 49.32 57.59 59.05 57.95 61.22 58.31 58.81 56.51 54.06 53.84 52.31 50.31 50.99 51.56 49.24 47.64 48.61 45.19 49.65 50.26 50.32 50.16 45.74 50.57 53.21 53.01 52.87 53.99 55.00 56.35 58.58
55.65 55.06 54.40 54.56 55.26 54.96 54.87 54.36 54.18 54.72 55.26 54.96 52.44 51.13 50.10 56.35 53.74 57.09 59.25 56.18 56.25 55.72 54.40 53.62 52.19 49.04 50.19 46.99 45.29 46.59 43.45 44.61 46.71 50.42 49.42 49.24 46.80 50.71 53.62 53.10 52.87 53.99 55.05 55.48 57.43
55.58 54.85 54.66 54.80 54.85 54.44 53.91 53.70 54.08 54.37 54.73 54.62 53.15 47.06 52.99 51.43 55.44 56.66 58.21 57.46 53.73 53.72 51.42 49.62 48.47 45.76 46.97 45.67 40.09 41.39 42.60 44.83 44.88 48.27 49.04 48.20 48.34 51.16 52.58 52.35 52.73 53.72 54.43 55.25 56.32
55.05 54.80 54.52 54.72 54.56 53.51 52.68 54.91 51.63 49.47 50.75 51.53 52.46 51.35 52.17 55.99 59.00 55.37 57.27 55.48 53.81 51.48 46.04 48.40 44.95 42.55 44.69 47.14 47.13 45.64 44.65 43.71 46.27 48.80 47.62 47.95 48.19 50.20 52.00 52.61 52.65 53.68 54.23 55.28 56.35
54.75 54.68 54.56 54.46 54.01 53.29 52.37 51.62 53.03 53.27 48.20 54.25 53.16 53.77 55.55 55.93 52.29 54.86 57.38 51.54 50.17 46.01 47.89 46.47 43.29 47.13 48.11 47.74 46.56 45.79 44.22 43.91 46.33 48.25 48.39 48.23 47.82 50.30 51.22 52.51 54.19 53.56 54.47 55.39 56.37
54.19 54.15 54.21 54.25 53.43 53.12 52.93 51.94 55.37 55.84 49.08 50.75 53.50 52.30 53.19 54.72 51.52 52.88 54.10 52.73 49.45 46.93 47.21 44.90 45.68 48.31 47.12 46.15 44.45 44.81 44.03 44.13 43.19 47.08 48.75 47.73 46.73 48.68 51.37 53.02 54.66 55.34 55.58 56.56 56.46
53.41 53.56 53.82 53.51 51.13 53.35 50.16 54.22 56.68 55.94 44.82 46.37 48.27 52.05 53.75 54.09 50.06 56.08 55.67 52.24 49.84 46.59 47.62 46.52 48.78 46.30 46.18 44.81 45.91 42.21 46.09 45.14 44.36 44.39 41.65 48.63 40.62 47.55 49.85 50.90 53.21 55.12 56.27 57.01 58.63
52.55 53.21 53.58 52.88 50.03 49.51 52.73 55.55 55.69 54.44 33.33 48.84 49.70 57.34 54.96 51.17 52.40 52.41 56.11 52.02 46.98 46.52 47.50 44.75 45.80 45.61 44.66 45.17 47.24 44.30 47.21 46.59 46.04 45.27 45.23 45.03 42.28 46.12 49.69 48.59 52.02 54.38 55.68 57.95 59.08
52.45 52.75 53.52 51.62 51.73 52.95 54.35 54.18 51.48 42.08 32.58 45.22 50.54 49.17 48.86 50.76 51.28 52.91 51.96 52.81 51.74 47.76 47.89 46.99 50.19 48.51 47.32 47.63 48.19 48.81 47.27 46.84 46.46 44.67 39.09 43.89 43.05 43.48 46.77 49.18 52.18 53.61 54.40 55.26 56.20
51.70 52.59 52.73 53.32 48.31 54.83 55.74 50.47 40.68 35.58 45.76 44.85 46.95 49.36 48.58 47.69 48.72 49.09 48.07 46.82 44.60 41.23 41.94 45.21 45.96 48.59 49.25 46.37 48.96 48.06 45.72 39.46 37.27 37.72 37.12 45.12 42.75 44.82 50.18 51.91 53.24 53.47 53.78 54.82 55.97
51.01 50.85 52.69 54.02 55.32 54.54 51.26 44.79 35.44 40.23 42.01 50.30 49.73 49.23 46.44 48.78 48.24 48.18 47.10 44.91 47.70 46.00 43.75 40.77 39.05 45.97 48.82 46.90 45.39 46.15 45.89 39.42 33.05 34.75 37.36 45.09 39.73 45.62 51.77 52.79 54.89 54.79 54.51 54.42 54.82
50.19 53.32 52.46 54.05 54.76 51.79 44.72 35.22 38.40 42.01 45.24 44.33 48.39 45.17 45.94 47.98 47.83 47.37 46.84 45.93 47.31 48.24 42.98 42.03 41.36 47.84 48.67 49.49 48.73 45.24 43.41 47.44 42.11 42.84 39.84 41.54 45.17 48.97 50.58 51.30 52.23 52.15 52.82 52.96 53.35
48.45 48.64 50.14 54.30 54.15 48.60 40.91 35.90 40.97 45.92 47.71 48.16 42.20 45.96 43.24 46.10 45.42 46.13 45.44 48.27 47.23 49.37 50.50 46.44 41.18 46.69 48.21 50.47 50.24 47.86 48.72 41.49 42.87 33.81 32.32 38.74 41.41 42.22 47.24 48.85 50.79 50.90 51.66 52.29 52.75
48.74 44.48 52.30 53.83 51.43 44.90 37.62 38.39 40.72 44.42 48.12 45.09 43.10 43.93 44.95 44.85 46.22 43.94 44.48 47.03 49.34 48.77 50.18 48.75 46.02 44.80 48.32 46.21 44.50 45.45 44.17 45.16 45.06 42.03 35.90 34.70 39.70 48.43 49.62 51.31 50.82 51.55 52.11 52.15 52.01
45.78 40.57 53.27 52.77 42.93 43.95 40.27 41.87 43.18 45.00 47.72 46.22 47.71 45.80 44.31 45.21 45.20 43.86 42.35 46.46 48.66 49.80 45.66 49.03 46.53 41.98 43.57 48.64 49.72 48.94 45.78 45.95 40.17 38.53 41.80 40.82 40.28 49.27 50.91 52.68 52.54 51.78 51.49 51.65 51.59
42.74 42.86 53.43 50.90 37.58 41.25 44.61 43.18 44.77 45.13 45.44 46.25 45.03 47.12 47.55 44.76 41.57 43.95 45.62 47.86 48.19 47.33 46.80 48.70 44.52 38.73 39.58 45.14 47.83 45.33 46.93 47.53 46.77 45.94 40.45 37.74 40.17 48.96 49.73 50.99 52.06 51.02 50.73 50.63 50.64
44.39 38.10 46.68 45.89 46.98 41.25 39.11 39.72 41.07 47.00 46.07 46.78 45.39 46.47 45.59 44.69 46.78 43.02 43.42 45.75 47.75 47.59 49.19 50.83 46.62 43.26 38.90 41.15 45.86 43.34 45.11 47.12 46.43 40.88 41.06 41.37 42.60 46.11 47.71 48.47 50.06 50.74 51.01 50.69 50.56
43.69 41.48 44.71 38.86 41.94 40.62 40.97 42.31 39.09 37.48 45.22 46.52 44.34 44.64 42.74 41.47 43.16 43.11 45.68 45.22 48.15 48.99 48.42 48.20 42.64 45.01 42.34 43.94 43.04 43.97 43.90 45.03 43.69 44.35 41.02 42.56 41.87 47.01 49.32 49.73 50.77 51.88 51.00 50.20 49.65
40.98 40.49 44.09 42.64 43.62 42.29 41.69 40.96 38.70 40.04 40.90 40.92 42.30 44.14 44.78 41.59 43.51 42.17 44.67 45.60 45.02 48.29 47.48 48.52 42.45 44.22 40.59 44.58 44.29 42.20 44.05 44.30 44.49 44.26 42.78 44.11 43.96 50.12 50.96 52.54 51.35 51.05 49.92 49.34 49.79
48.21 49.23 41.35 40.63 41.62 40.35 39.89 39.60 37.92 37.71 42.91 42.92 43.89 44.50 43.04 42.55 44.74 46.03 47.58 47.14 48.07 46.83 46.21 45.94 44.12 41.68 37.88 42.06 41.40 38.08 42.16 43.31 44.58 46.10 45.35 41.84 45.77 49.23 48.95 49.58 50.72 50.45 48.81 48.58 48.17
MSLP
1021.26 1020.96 1020.75 1020.49 1020.20 1019.88 1019.53 1019.17 1018.84 1018.55 1018.27 1018.05 1017.84 1017.61 1017.39 1016.98 1016.37 1015.17 1013.40 1012.04 1011.98 1012.52 1012.37 1011.61 1011.65 1011.14 1010.72 1010.03 1010.04 1009.62 1007.47 1005.35 1004.83 1005.00 1005.03 1005.74 1006.17 1006.84 1006.85 1006.61 1006.52 1006.06 1005.75 1005.83 1006.28
1021.22 1020.95 1020.65 1020.31 1020.02 1019.72 1019.34 1018.97 1018.62 1018.27 1017.96 1017.78 1017.67 1017.44 1017.18 1016.73 1015.30 1012.64 1010.80 1011.50 1012.21 1012.22 1011.47 1010.49 1010.33 1010.43 1009.82 1009.42 1009.36 1008.80 1007.01 1005.60 1005.39 1005.60 1005.68 1005.94 1006.36 1006.36 1007.02 1006.37 1006.33 1006.44 1006.27 1006.15 1006.20
1021.03 1020.70 1020.43 1020.23 1019.93 1019.58 1019.21 1018.86 1018.44 1018.01 1017.75 1017.57 1017.38 1017.34 1017.14 1016.53 1013.79 1009.43 1010.05 1010.77 1011.69 1012.02 1010.77 1010.00 1009.73 1009.64 1008.92 1008.83 1008.67 1008.08 1006.76 1005.90 1006.54 1006.85 1006.80 1006.55 1006.38 1006.27 1006.53 1006.16 1005.96 1005.81 1005.57 1005.60 1005.91
1020.90 1020.56 1020.20 1019.86 1019.56 1019.27 1018.98 1018.54 1018.08 1017.78 1017.50 1017.34 1017.22 1017.02 1016.82 1015.88 1011.83 1009.44 1010.32 1010.59 1011.54 1011.39 1010.36 1009.94 1009.28 1008.87 1008.46 1008.27 1007.88 1007.69 1007.06 1006.71 1006.57 1006.98 1007.02 1006.71 1006.55 1006.20 1006.02 1005.66 1005.66 1005.49 1005.36 1005.42 1005.69
1020.51 1020.22 1019.86 1019.51 1019.18 1018.90 1018.57 1018.24 1017.86 1017.51 1017.22 1016.99 1016.85 1016.77 1016.16 1014.07 1010.66 1009.28 1010.65 1010.94 1011.20 1010.78 1009.77 1009.21 1008.85 1008.21 1007.78 1007.66 1007.76 1007.51 1006.60 1006.71 1006.82 1006.79 1006.74 1006.65 1006.15 1005.91 1005.44 1005.17 1005.23 1005.06 1005.05 1005.36 1005.06
1020.18 1019.77 1019.38 1019.06 1018.71 1018.25 1017.88 1017.47 1017.27 1016.97 1016.60 1016.24 1016.21 1016.49 1015.47 1011.85 1008.91 1009.65 1009.93 1010.48 1010.04 1010.02 1009.36 1008.94 1008.52 1008.26 1007.63 1007.47 1007.42 1006.70 1006.80 1006.33 1006.24 1006.19 1006.21 1006.11 1005.47 1005.77 1004.62 1004.35 1004.36 1004.57 1004.53 1004.34 1004.30
1019.81 1019.42 1019.07 1018.76 1018.47 1018.14 1017.73 1017.21 1016.86 1016.45 1016.03 1015.73 1015.79 1015.82 1014.48 1010.11 1009.20 1009.05 1009.48 1009.62 1009.57 1009.31 1008.95 1009.00 1008.97 1008.71 1007.70 1007.37 1007.39 1007.22 1006.74 1006.13 1005.72 1005.69 1005.59 1005.77 1005.07 1004.58 1004.04 1003.80 1003.53 1003.72 1003.75 1003.79 1003.85
1019.41 1019.01 1018.70 1018.42 1018.04 1017.66 1017.26 1016.85 1016.32 1015.78 1015.28 1014.94 1015.49 1015.46 1011.91 1009.17 1009.28 1009.12 1009.06 1009.35 1009.64 1009.32 1009.18 1009.32 1009.51 1008.79 1008.22 1007.67 1007.53 1006.92 1006.35 1004.98 1004.02 1005.01 1005.20 1005.33 1002.88 1003.16 1003.74 1003.45 1002.99 1002.97 1003.05 1003.28 1003.54
1019.10 1018.80 1018.49 1018.12 1017.69 1017.29 1016.80 1016.20 1015.72 1015.36 1015.09 1015.17 1015.15 1014.34 1009.69 1009.43 1008.96 1008.27 1008.54 1008.47 1009.17 1009.52 1009.61 1009.53 1009.58 1008.86 1008.42 1007.62 1006.80 1006.33 1004.54 1004.03 1003.65 1004.35 1004.44 1004.55 1002.83 1003.23 1003.05 1003.02 1002.79 1002.72 1002.70 1002.83 1002.99
1018.98 1018.63 1018.21 1017.80 1017.37 1016.87 1016.26 1015.49 1015.17 1015.12 1014.97 1014.61 1014.13 1013.73 1009.13 1006.94 1007.03 1007.33 1007.78 1008.21 1008.48 1009.04 1009.26 1009.10 1008.70 1008.22 1007.68 1006.73 1005.21 1005.06 1004.72 1003.96 1003.58 1004.06 1004.07 1003.68 1003.07 1002.83 1002.52 1002.75 1002.48 1002.38 1002.34 1002.53 1002.76
1018.77 1018.39 1017.99 1017.45 1016.97 1016.48 1015.98 1014.49 1014.51 1014.18 1013.60 1010.55 1008.97 1007.93 1006.60 1006.28 1006.64 1007.10 1007.38 1007.68 1007.73 1008.04 1007.56 1007.79 1007.11 1006.24 1006.05 1006.14 1005.47 1005.01 1004.56 1004.04 1003.83 1003.96 1004.39 1003.38 1002.82 1002.44 1002.28 1002.55 1002.45 1002.39 1002.47 1002.57 1003.13
1018.60 1018.20 1017.79 1017.20 1016.60 1016.26 1015.78 1013.66 1012.13 1011.99 1009.96 1008.21 1007.45 1006.60 1006.26 1006.14 1005.66 1006.09 1006.99 1006.60 1006.74 1006.28 1006.45 1006.76 1005.51 1005.18 1005.67 1005.85 1005.65 1005.37 1004.77 1004.22 1004.12 1004.16 1004.21 1003.17 1002.73 1002.31 1002.56 1002.70 1002.99 1003.18 1002.81 1002.74 1003.40
1018.21 1017.80 1017.29 1016.83 1015.86 1015.22 1014.22 1013.24 1012.23 1011.84 1009.75 1005.57 1004.99 1005.22 1005.05 1005.77 1004.88 1004.95 1005.87 1005.41 1005.26 1005.20 1004.89 1004.54 1004.05 1004.66 1005.36 1005.37 1005.48 1005.05 1004.56 1004.18 1004.14 1004.12 1003.96 1003.36 1002.70 1002.27 1002.65 1002.86 1003.20 1003.67 1003.84 1003.93 1003.85
1017.93 1017.41 1016.87 1016.49 1015.41 1014.23 1012.91 1012.08 1011.77 1011.70 1008.78 1004.24 1004.14 1003.44 1003.77 1004.12 1003.90 1003.51 1004.50 1004.52 1004.51 1004.05 1004.21 1004.13 1003.78 1004.24 1004.42 1004.53 1004.82 1004.35 1004.62 1004.66 1004.25 1004.01 1002.71 1002.80 1001.39 1001.11 1001.87 1002.39 1003.25 1003.84 1004.09 1004.34 1004.75
1017.24 1017.06 1016.51 1016.57 1016.03 1014.49 1012.79 1012.67 1012.36 1011.29 1006.93 1002.14 1002.46 1002.30 1002.50 1002.26 1000.92 1002.38 1003.53 1003.59 1003.21 1003.36 1003.64 1003.08 1003.30 1003.59 1003.74 1003.76 1004.09 1003.99 1004.28 1004.17 1004.17 1003.49 1002.66 1002.58 1002.10 1000.23 1001.63 1001.99 1003.37 1004.26 1004.83 1005.27 1005.89
1016.91 1016.41 1016.11 1015.46 1014.86 1013.47 1013.12 1013.21 1012.72 1009.63 1003.60 1001.03 1001.43 1001.44 1001.59 1001.43 1001.00 1001.54 1002.65 1003.01 1002.90 1002.97 1003.01 1002.70 1003.04 1003.01 1002.86 1003.29 1003.43 1003.82 1004.04 1004.02 1003.95 1003.37 1002.52 1001.90 1001.70 1000.27 1000.52 1001.51 1003.61 1004.78 1005.59 1006.36 1007.07
1016.19 1015.63 1015.37 1014.80 1013.11 1012.45 1012.94 1012.51 1010.19 1005.56 1001.48 999.84 999.93 1000.17 999.99 1000.07 1000.30 1001.13 1001.55 1001.84 1001.66 1002.15 1002.01 1002.29 1002.05 1002.76 1002.65 1002.61 1003.08 1003.33 1003.22 1002.59 1002.78 1002.34 1001.55 1001.20 1001.49 1000.97 1001.52 1002.36 1003.54 1004.96 1006.16 1007.06 1007.63
1015.39 1014.70 1013.16 1012.37 1011.68 1012.59 1012.56 1011.20 1006.73 1002.61 1001.67 999.66 998.72 999.38 999.03 998.95 999.63 1000.06 1000.54 1000.80 1001.16 1001.11 1000.60 1001.11 1001.28 1001.67 1002.08 1002.31 1001.90 1002.30 1002.18 1001.41 1001.34 1001.07 1001.16 1002.16 1001.78 1001.70 1002.74 1003.49 1004.16 1005.54 1006.63 1007.57 1008.04
1014.85 1012.65 1011.03 1010.80 1011.04 1011.79 1011.62 1009.02 1005.08 1002.98 1001.66 1000.47 999.08 998.68 998.64 998.55 998.85 999.39 999.61 999.93 1000.28 1000.61 1000.33 1000.27 1000.22 1000.73 1001.35 1001.86 1002.07 1001.77 1001.67 1001.79 1002.12 1002.69 1002.28 1002.21 1002.33 1003.40 1003.97 1004.44 1005.35 1006.20 1007.05 1007.79 1008.52
1014.50 1012.61 1010.43 1010.82 1011.34 1011.40 1009.58 1005.58 1003.75 1003.08 1001.78 1001.14 999.67 998.70 998.26 997.92 998.77 998.76 999.37 999.58 999.90 1000.38 1000.60 1000.37 1000.19 1000.88 1001.50 1001.85 1002.16 1002.02 1002.32 1002.61 1002.65 1002.99 1002.78 1002.24 1001.94 1002.27 1003.67 1004.36 1005.40 1006.26 1007.04 1008.04 1008.76
1014.00 1011.68 1010.33 1010.93 1011.48 1010.69 1007.37 1004.71 1003.33 1002.80 1002.62 1001.92 1000.58 999.53 998.64 998.16 998.32 999.00 999.24 1000.32 999.99 1000.22 1000.76 1000.75 1000.58 1001.38 1001.78 1001.37 1001.08 1002.11 1002.29 1002.72 1003.14 1003.87 1003.32 1002.85 1002.46 1003.16 1002.74 1003.74 1005.00 1006.13 1007.17 1008.17 1008.76
1013.75 1011.30 1009.93 1011.30 1010.49 1008.07 1005.77 1004.21 1003.62 1002.48 1002.21 1001.80 1001.31 1000.62 1000.50 1000.08 999.56 1000.13 1001.15 1001.05 1002.23 1000.90 1001.03 1001.16 1001.25 1000.91 1001.22 1001.50 1001.86 1001.78 1001.72 1002.30 1002.97 1003.57 1003.71 1003.28 1003.30 1004.34 1003.92 1003.92 1005.22 1006.26 1007.66 1008.45 1009.00
1013.55 1010.94 1009.04 1010.18 1009.05 1006.74 1005.59 1004.78 1003.67 1002.62 1002.22 1001.25 1000.87 1000.64 1000.66 1000.91 1000.93 1001.35 1001.83 1002.83 1002.96 1003.16 1001.67 1001.95 1001.72 1001.49 1002.48 1002.64 1002.57 1002.16 1002.18 1002.28 1002.82 1003.22 1003.58 1003.79 1003.37 1004.61 1004.73 1005.10 1005.93 1006.79 1007.79 1008.61 1009.08
1013.57 1010.63 1007.90 1009.57 1008.50 1007.84 1006.64 1005.49 1004.35 1003.30 1002.42 1002.15 1002.01 1001.72 1001.46 1001.12 1001.31 1002.11 1003.00 1003.29 1003.99 1004.15 1003.85 1002.76 1001.95 1001.70 1001.57 1001.61 1001.66 1002.21 1002.22 1002.29 1002.54 1003.21 1003.07 1002.94 1003.20 1004.47 1004.91 1005.42 1006.17 1006.93 1007.80 1008.36 1009.15
1013.53 1010.66 1009.16 1008.21 1007.35 1007.44 1007.40 1005.86 1005.16 1005.34 1003.90 1003.13 1002.41 1002.24 1002.42 1002.28 1001.74 1001.89 1002.59 1003.60 1004.04 1004.07 1003.56 1003.43 1002.76 1002.82 1003.09 1003.12 1003.03 1002.45 1002.20 1002.34 1002.47 1002.55 1002.57 1002.47 1003.69 1003.21 1003.78 1004.95 1005.76 1006.73 1007.76 1008.41 1009.05
1013.32 1011.72 1010.47 1009.42 1007.78 1006.84 1006.20 1005.71 1006.16 1005.50 1005.30 1004.33 1003.54 1002.75 1003.20 1003.51 1003.00 1002.70 1002.46 1002.58 1002.61 1003.30 1003.05 1003.29 1002.80 1003.06 1003.28 1003.22 1003.14 1002.71 1002.43 1002.55 1002.37 1002.54 1002.88 1003.18 1002.66 1002.74 1003.53 1004.35 1005.65 1007.01 1007.82 1008.38 1009.40
1012.77 1012.15 1011.84 1009.66 1007.47 1006.55 1006.25 1006.34 1006.83 1006.93 1005.59 1005.21 1004.13 1003.52 1004.00 1004.68 1004.72 1004.95 1003.71 1003.62 1003.13 1002.65 1002.84 1002.97 1002.95 1003.32 1002.98 1003.41 1003.36 1002.78 1002.22 1002.20 1002.17 1002.29 1002.65 1002.58 1002.72 1003.15 1004.23 1005.12 1006.10 1007.49 1008.78 1009.60 1010.46
Wind_Speed
12 12 12 13 14 14 15 15 14 13 13 13 14 15 16 17 17 16 15 6 4 4 12 13 13 12 11 9 7 6 9 13 17 11 10 5 7 4 2 7 6 9 8 6 5
13 14 13 12 13 13 13 13 14 15 14 14 15 15 16 16 19 22 13 10 14 12 15 18 16 16 13 13 8 13 12 14 8 7 8 4 6 6 5 9 11 10 14 13 4
14 13 13 15 15 14 14 15 14 13 12 13 12 13 15 17 12 5 6 16 16 16 17 13 15 15 13 11 12 14 15 11 8 9 7 10 7 4 10 12 12 14 13 10 5
14 14 14 14 15 15 15 15 15 15 14 13 12 10 10 8 7 7 5 15 16 18 15 14 16 16 15 13 14 11 16 9 8 4 8 9 6 9 9 12 11 13 14 9 11
12 15 15 15 15 15 14 15 15 15 15 15 14 9 9 9 16 5 11 16 16 17 19 17 16 15 15 15 11 17 12 10 11 9 9 8 11 10 13 11 13 11 11 13 12
13 14 14 14 14 14 14 14 14 15 18 17 13 7 9 12 2 4 8 15 15 18 17 14 11 11 10 10 15 8 15 11 9 11 8 10 9 4 13 14 12 12 13 13 12
13 14 14 16 16 17 17 15 14 17 20 16 10 9 9 15 2 5 10 14 12 16 14 13 2 11 6 9 9 8 12 15 15 14 9 10 12 11 10 4 8 10 12 10 10
14 14 13 16 16 18 17 17 16 20 15 6 11 8 10 6 8 10 10 10 10 8 5 8 6 13 9 3 7 13 13 15 16 11 8 11 5 7 3 8 10 10 11 10 9
14 15 18 18 18 19 18 17 21 14 4 8 9 8 7 8 10 17 16 11 13 11 5 6 11 11 11 13 11 12 13 15 13 10 9 12 4 4 7 5 8 9 10 12 12
15 15 16 18 18 17 16 20 8 6 6 6 4 7 9 7 8 11 17 13 14 15 12 10 11 11 14 14 14 13 14 10 10 11 10 11 13 10 6 6 9 10 12 11 12
17 16 17 18 18 17 16 6 6 8 10 12 7 8 5 5 11 11 19 19 14 19 16 17 15 18 19 17 17 7 8 10 7 4 8 12 7 9 2 6 8 9 12 12 9
17 17 18 19 19 21 8 7 8 8 14 22 26 22 18 1 9 14 21 18 20 20 19 13 20 18 14 13 13 13 14 13 11 10 11 10 10 7 4 2 2 4 9 12 8
15 16 17 17 21 9 6 14 12 8 10 14 17 17 17 19 15 21 25 22 20 23 22 17 12 17 15 15 15 15 15 11 10 6 10 9 14 12 10 6 4 4 3 4 7
17 16 15 16 14 9 14 2 8 6 9 9 9 9 15 16 13 17 27 25 15 22 19 19 11 10 19 19 17 17 13 15 13 12 13 15 12 16 10 9 5 6 7 9 11
16 16 15 4 11 8 8 6 9 5 9 11 8 11 16 19 15 20 25 24 18 16 18 17 18 20 17 13 15 17 15 13 13 15 15 13 10 4 10 10 8 8 9 10 11
18 18 13 9 8 14 14 12 9 10 12 9 10 14 17 21 14 22 22 20 17 17 17 20 10 12 19 18 13 14 10 8 10 12 14 17 11 12 12 12 10 9 10 10 11
19 18 12 11 8 2 1 5 9 14 3 13 11 16 21 18 17 20 22 23 14 17 18 18 18 11 7 13 14 13 13 10 11 11 11 12 8 14 10 9 10 11 12 12 11
21 22 15 12 9 12 6 9 18 6 21 5 12 17 21 20 20 20 22 21 22 18 12 15 17 21 16 17 13 17 17 10 9 9 12 10 9 4 7 4 12 12 12 11 10
24 10 10 6 7 9 10 13 20 16 9 12 9 14 19 18 14 20 20 22 22 19 11 12 12 13 18 15 17 12 14 9 8 5 8 9 5 8 8 9 12 14 12 10 9
8 10 8 5 9 10 10 24 22 25 11 11 16 15 18 21 17 23 19 19 21 22 16 8 10 11 11 10 6 9 9 8 9 9 13 10 12 6 13 16 15 15 13 10 9
5 7 7 7 10 8 12 17 21 28 12 9 11 16 7 16 19 15 15 6 17 19 19 12 10 10 10 15 16 9 12 10 8 8 6 11 5 13 11 17 16 15 12 10 7
4 6 8 9 7 7 11 14 13 15 12 21 19 16 11 10 13 18 14 8 5 5 18 19 10 11 18 6 4 10 11 13 8 12 8 10 7 2 1 10 13 12 10 8 5
4 9 2 7 7 9 13 14 19 17 17 14 15 15 11 12 10 1 7 3 5 6 4 11 10 11 6 10 8 13 12 11 10 9 11 10 3 7 6 9 11 12 10 9 4
4 6 4 5 9 11 8 9 13 16 20 24 12 3 8 14 10 14 9 5 7 8 9 5 9 17 10 1 6 17 13 15 14 10 12 13 8 9 11 13 14 13 10 7 6
3 6 5 7 7 8 7 11 12 4 9 6 7 14 6 12 11 11 16 16 17 12 9 7 10 10 2 1 1 5 8 12 14 14 14 11 5 11 13 13 14 11 9 8 4
4 4 6 13 15 14 8 9 10 7 5 9 11 11 12 6 1 10 11 11 9 11 11 7 7 9 11 12 10 11 10 12 13 11 8 11 15 10 1 5 12 10 6 3 2
2 5 2 9 10 11 7 4 1 7 5 6 18 10 11 5 5 8 6 5 2 6 7 7 7 7 10 8 7 12 15 16 16 15 14 15 11 5 5 7 8 8 4 2 2
Wind_Direction
341 339 335 333 329 326 327 326 324 324 323 321 324 323 321 318 301 258 253 253 192 201 214 155 179 184 191 188 213 239 237 238 235 236 249 135 230 155 322 261 249 278 283 324 337
335 332 329 326 324 322 318 315 316 319 318 317 323 325 322 319 299 273 241 214 204 191 200 171 178 180 193 199 193 216 227 243 281 259 256 239 239 277 246 248 239 242 252 260 249
331 330 329 323 324 323 321 318 314 310 310 311 319 322 320 308 287 245 110 193 195 198 216 195 169 188 197 191 193 211 241 243 240 256 268 277 264 233 242 247 252 251 243 204 239
325 328 325 322 323 325 322 318 313 310 307 300 305 306 311 291 277 66 84 171 184 195 196 189 180 191 210 205 200 236 234 253 267 235 243 251 280 250 242 261 262 250 230 242 251
321 322 322 323 323 321 317 313 309 304 300 297 294 290 271 226 249 324 128 150 171 190 190 188 192 199 211 212 199 230 249 236 238 243 246 264 263 279 266 251 245 241 222 240 242
322 315 319 319 315 311 307 301 300 298 293 283 271 241 243 239 36 219 177 169 178 192 195 201 209 207 226 219 213 189 239 239 238 241 220 238 252 255 254 234 220 222 233 235 239
315 314 316 319 318 317 311 306 303 303 303 287 232 209 238 249 81 168 182 188 191 198 191 206 251 192 184 197 211 244 245 234 230 230 222 229 244 231 259 188 218 224 227 223 226
313 312 317 320 318 313 312 308 303 303 295 273 188 197 255 195 240 229 177 180 197 203 214 191 219 231 247 81 196 228 230 246 201 184 173 215 215 168 94 209 228 215 208 203 196
313 318 320 320 317 319 314 305 303 298 295 160 166 233 257 127 213 209 196 176 176 188 184 182 204 219 197 222 209 207 238 212 160 195 152 216 243 216 201 245 245 233 220 223 217
320 321 318 316 318 317 317 300 305 274 190 193 307 234 231 211 164 177 184 192 166 175 176 186 193 205 219 216 215 208 225 218 240 155 211 219 241 251 220 235 243 241 238 219 226
324 320 315 315 318 318 321 264 190 182 217 222 196 263 138 140 146 175 172 172 177 180 192 194 203 207 203 217 247 264 239 248 230 187 256 246 277 251 203 229 240 246 244 234 228
318 320 319 316 315 316 287 250 348 344 288 235 246 239 254 201 195 158 175 179 182 192 202 179 220 205 222 215 229 233 238 240 248 244 228 243 250 229 218 154 3 318 234 210 187
315 315 318 315 308 283 281 284 311 308 267 284 230 228 215 212 219 171 190 202 195 202 193 210 206 210 203 209 219 230 244 244 254 163 227 257 244 215 176 175 110 92 131 142 131
316 313 315 326 282 338 288 224 334 248 270 215 203 221 186 190 211 204 192 194 199 210 201 226 182 208 202 222 214 234 218 250 251 226 229 195 250 183 184 168 118 99 101 106 110
308 305 301 336 299 286 358 332 324 234 274 123 148 140 161 188 146 179 190 194 206 205 207 207 213 208 211 207 216 237 233 226 244 233 249 190 245 166 162 186 143 114 99 98 100
308 301 301 290 241 258 287 297 283 230 234 190 153 181 171 212 189 152 183 207 220 223 212 235 195 224 226 222 217 219 200 212 219 221 226 232 213 229 178 195 147 132 120 121 115
304 296 285 273 255 302 234 214 219 235 170 187 188 181 189 181 178 175 182 194 190 201 205 213 217 204 214 193 188 211 214 202 201 207 233 210 193 254 91 133 164 148 133 129 128
306 298 267 246 241 237 257 230 240 270 231 41 202 190 200 184 197 190 188 196 213 206 190 204 200 206 200 222 202 201 216 239 231 222 214 152 215 198 89 208 134 141 132 129 127
312 293 272 242 239 176 195 216 234 261 294 259 225 209 205 199 204 195 207 205 200 205 229 197 224 180 202 201 226 204 226 262 256 227 261 195 144 150 145 144 153 152 152 138 126
314 297 276 31 154 163 208 230 232 254 297 290 268 210 226 204 206 195 193 207 204 202 223 193 176 188 167 202 200 204 246 201 224 238 241 247 224 227 178 175 174 168 163 151 146
273 302 84 133 169 206 232 224 230 253 266 266 273 271 267 264 201 210 208 123 215 199 209 219 246 160 174 202 192 173 211 225 241 219 250 263 264 2 189 180 178 177 164 160 152
291 282 86 172 228 210 236 238 268 235 241 251 246 267 267 249 227 187 201 186 11 284 209 210 214 197 199 123 315 254 227 217 213 230 251 279 274 43 276 164 180 168 171 161 153
275 275 126 180 263 277 290 290 246 247 255 240 249 240 226 222 214 221 200 127 49 336 252 160 218 198 221 196 198 226 219 247 246 268 258 244 219 138 129 161 179 177 176 173 179
287 291 157 189 268 296 301 288 287 272 245 251 258 295 218 214 216 176 156 111 163 238 263 248 221 221 225 72 221 208 225 214 225 234 242 242 202 163 170 184 183 188 185 188 184
236 255 323 291 290 277 273 286 284 322 295 279 247 214 159 257 201 183 169 158 191 177 183 205 242 217 195 209 206 258 207 208 228 235 249 265 231 286 184 200 191 188 189 190 196
285 319 330 297 291 302 298 309 341 345 224 300 282 208 177 202 274 177 164 174 173 177 173 192 206 197 179 205 230 246 239 244 242 247 271 267 267 274 218 215 184 198 209 228 210
238 285 243 273 294 293 316 322 18 331 222 190 283 158 182 149 74 317 21 6 144 184 174 186 178 201 236 160 252 248 240 244 246 227 236 247 260 124 179 217 187 188 204 204 337